This is the latest recevied weather packets stored in our database for station/object W2OBX. If no packets are shown the sender has not sent any weather packets the latest 10 day(s).
| Time | Temp. | Humidity | Pressure | Rain* | Wind** | Luminosity | Snow |
|---|---|---|---|---|---|---|---|
| 1777509245 | 19.44° C | 79% | 1011.8 hPa | 0 mm | - | 0 W/m² | - |
| 1777508941 | 18.89° C | 80% | 1012 hPa | 0 mm | - | 0 W/m² | - |
| 1777508638 | 19.44° C | 83% | 1011.7 hPa | 0 mm | - | 0 W/m² | - |
| 1777508336 | 19.44° C | 84% | 1011.4 hPa | 0 mm | - | 1 W/m² | - |
| 1777508033 | 19.44° C | 84% | 1011.2 hPa | 0 mm | - | 1 W/m² | - |
| 1777507729 | 20° C | 83% | 1011 hPa | 0 mm | - | 2 W/m² | - |
| 1777507426 | 20° C | 83% | 1011 hPa | 0 mm | - | 3 W/m² | - |
| 1777507123 | 20.56° C | 82% | 1010.7 hPa | 0 mm | - | 4 W/m² | - |
| 1777506821 | 20.56° C | 80% | 1010.7 hPa | 0 mm | - | 5 W/m² | - |
| 1777506518 | 21.11° C | 80% | 1010.8 hPa | 0 mm | - | 6 W/m² | - |
| 1777506213 | 21.11° C | 75% | 1010.9 hPa | 0 mm | - | 7 W/m² | - |
| 1777505910 | 21.11° C | 75% | 1011.1 hPa | 0 mm | - | 11 W/m² | - |
| 1777505606 | 21.11° C | 75% | 1010.8 hPa | 0 mm | - | 11 W/m² | - |
| 1777505303 | 21.67° C | 75% | 1010.8 hPa | 0 mm | - | 10 W/m² | - |
| 1777504999 | 21.67° C | 74% | 1010.9 hPa | 0 mm | - | 12 W/m² | - |
| 1777504696 | 21.67° C | 76% | 1010.8 hPa | 0 mm | - | 16 W/m² | - |
| 1777504394 | 21.67° C | 77% | 1010.9 hPa | 0 mm | - | 19 W/m² | - |
| 1777504089 | 21.11° C | 79% | 1011 hPa | 0 mm | - | 27 W/m² | - |
| 1777503784 | 21.11° C | 81% | 1011 hPa | 0 mm | - | 25 W/m² | - |
| 1777503481 | 21.11° C | 83% | 1010.9 hPa | 0 mm | - | 22 W/m² | - |
| 1777503177 | 21.11° C | 83% | 1010.9 hPa | 0 mm | - | 27 W/m² | - |
| 1777502874 | 21.11° C | 83% | 1010.8 hPa | 0 mm | - | 18 W/m² | - |
| 1777502572 | 21.67° C | 83% | 1010.7 hPa | 0 mm | - | 18 W/m² | - |
| 1777502269 | 21.67° C | 82% | 1010.7 hPa | 0 mm | - | 20 W/m² | - |
| 1777501966 | 21.67° C | 84% | 1010.7 hPa | 0 mm | - | 20 W/m² | - |
* Rain latest hour (hover to see other rain measurements)
** Current wind speed in m/s (hover to see current wind gust speed)